Presure
225 228 222 221 220 216 209 205 209 213 212 208 232 225 208 205 204 197 201 195 192 193 192 188 183 189 193 195 201 192 191 182 198 201 191 204 206 209 212 223 223 209 212 220
219 221 215 211 212 203 206 211 211 216 206 243 218 210 202 199 196 191 195 191 190 193 193 192 193 199 202 183 194 210 199 189 193 205 203 204 208 211 217 233 203 221 234 248
221 217 208 209 216 213 212 207 221 223 255 232 218 201 194 191 191 193 195 193 193 195 196 205 208 197 195 189 199 194 188 192 199 200 207 203 213 217 233 209 221 233 247 257
221 215 206 208 202 213 204 208 211 250 233 209 199 197 198 199 198 195 194 195 200 203 205 204 194 199 183 204 201 184 193 207 202 205 205 213 219 230 209 229 240 242 251 263
210 212 206 204 206 209 206 201 250 230 159 201 196 192 191 193 193 193 198 201 202 202 203 195 195 202 190 203 184 205 206 191 205 206 212 220 231 205 229 241 237 247 255 260
208 212 207 205 203 210 207 203 211 207 198 197 197 196 197 193 195 197 201 201 194 199 191 199 189 193 200 196 204 200 186 206 208 213 224 237 203 225 238 236 241 257 261 258
211 210 206 209 201 187 126 207 205 200 198 200 199 199 200 198 195 199 201 201 203 195 193 189 198 197 184 200 200 190 208 209 215 216 218 193 228 237 237 239 256 264 261 256
202 211 207 205 201 198 199 206 203 200 200 198 200 201 201 202 200 196 192 196 197 192 193 198 200 201 204 201 197 212 206 216 208 235 196 229 233 238 239 256 262 245 253 259
209 203 209 202 201 193 197 199 195 194 194 193 192 197 200 201 200 204 198 200 194 193 193 200 200 203 184 209 210 202 217 206 235 195 227 234 236 243 248 261 257 246 269 276
203 207 199 207 120 199 195 201 201 196 194 198 199 199 198 202 194 192 202 193 193 190 200 199 198 187 206 205 203 216 207 232 220 225 235 234 243 248 258 261 253 269 277 285
202 201 179 201 201 203 203 197 199 199 199 200 200 198 197 192 194 203 192 184 192 200 199 199 190 206 202 211 216 221 235 223 223 239 238 245 247 246 261 255 264 275 280 396
213 180 201 207 207 200 201 206 207 202 199 197 200 199 195 193 202 191 188 195 202 195 203 210 206 202 211 218 223 239 224 221 237 238 248 247 248 260 273 275 273 292 409 410
217 214 207 204 205 206 201 199 202 202 203 193 193 193 191 201 190 203 205 202 192 208 213 208 212 213 220 226 238 225 215 239 239 249 248 248 263 272 281 267 291 408 402 399
222 219 215 207 207 207 207 206 205 194 198 197 198 199 198 205 207 203 199 197 212 207 205 215 216 220 229 228 222 219 241 246 248 247 251 263 273 271 274 299 422 411 401 389
219 218 221 220 210 209 205 204 207 207 204 204 205 208 204 203 199 197 213 212 206 217 215 216 221 242 228 219 238 245 248 248 251 256 265 261 268 282 296 427 425 417 398 380
228 223 220 216 218 218 219 217 203 207 207 205 204 209 215 199 215 216 212 206 220 198 219 227 232 227 238 245 244 248 253 256 259 268 264 273 283 301 433 424 406 395 390 394
227 231 231 224 219 218 221 220 219 212 208 212 212 205 209 215 214 207 217 217 217 227 225 229 230 241 245 242 250 251 260 260 268 257 277 290 314 434 415 400 392 396 397 383
232 233 231 230 225 222 222 221 219 220 216 212 199 214 215 216 218 222 222 227 228 227 225 237 246 240 249 252 253 262 267 263 274 282 302 364 420 412 398 394 404 388 381 386
227 229 231 230 227 226 223 220 221 218 202 204 223 223 223 222 223 223 217 193 230 221 245 246 228 258 254 261 261 268 262 277 286 295 428 420 410 396 402 390 381 380 385 399
234 234 232 227 224 223 223 222 221 215 222 218 218 225 226 227 228 189 230 216 240 248 236 243 260 256 260 261 269 269 275 288 333 427 419 405 402 406 383 381 393 399 390 395
235 226 225 231 232 226 222 221 218 220 222 228 231 228 231 193 233 220 238 240 245 249 263 261 262 258 265 265 277 278 292 365 421 411 400 412 394 383 389 391 400 396 400 381
231 228 227 225 226 228 225 223 227 227 231 230 200 206 232 220 236 236 244 246 257 266 262 259 257 268 267 279 283 300 422 412 407 410 403 386 407 397 408 403 405 392 374 365
228 231 230 229 230 231 229 229 232 214 229 233 234 222 232 237 239 248 259 260 267 265 261 265 270 275 277 289 306 412 413 415 406 391 391 432 437 422 417 404 380 368 431 429
225 226 227 228 232 237 244 236 227 232 236 207 237 238 242 250 260 259 268 269 269 262 268 274 279 284 291 334 413 419 408 394 389 405 428 434 425 420 393 377 451 422 398 380
241 244 232 225 228 233 234 237 239 237 241 243 251 255 258 258 272 275 271 271 270 270 279 281 292 392 417 420 404 396 392 395 409 413 436 434 409 385 375 428 396 375 399 613
232 234 234 235 240 244 243 244 246 252 257 261 262 264 277 276 273 270 269 275 281 285 289 301 417 420 407 398 442 479 431 409 403 429 425 409 380 368 414 381 367 526 522 532
246 246 240 243 247 253 259 262 264 262 264 280 273 272 271 269 275 277 281 282 289 301 410 416 410 398 409 399 399 470 436 398 411 415 409 379 362 414 369 366 435 429 470 504
Wind_Speed
26 21 19 22 23 23 23 24 26 22 27 22 24 25 31 32 27 30 32 35 37 41 45 48 52 54 56 57 58 64 68 70 75 77 80 86 87 89 93 97 95 95 100 104
30 24 22 23 26 22 26 24 27 26 29 28 26 33 31 30 35 36 38 41 46 48 48 50 52 55 54 61 62 63 68 72 77 79 84 87 90 94 99 97 94 101 104 108
30 25 25 30 22 26 23 22 29 30 26 28 29 29 32 36 39 42 43 47 50 52 53 53 53 55 58 62 64 67 71 78 81 82 87 89 94 98 97 96 100 103 107 109
30 27 30 27 26 26 24 24 28 28 30 30 29 32 36 40 42 45 49 52 54 55 56 58 58 62 62 68 69 67 77 81 81 87 89 94 99 98 97 104 109 110 115 117
31 29 32 30 28 28 28 29 27 30 35 33 34 36 39 40 45 50 53 54 55 57 58 59 63 65 68 72 67 79 82 77 89 91 95 101 98 97 104 110 110 116 118 116
34 32 34 35 33 28 30 33 34 34 37 40 41 42 43 46 50 53 55 55 55 56 57 63 64 69 74 75 80 82 75 92 94 96 101 98 91 105 110 110 114 122 119 116
34 34 37 39 35 29 21 37 37 38 40 41 44 46 47 50 53 56 58 58 59 59 63 66 70 73 71 80 81 79 91 93 95 99 100 85 106 110 112 115 122 119 117 115
36 36 40 39 38 39 40 40 40 42 44 47 48 49 51 53 55 57 60 61 62 64 67 72 75 78 81 81 84 92 93 98 95 103 89 108 110 112 115 122 120 112 116 119
37 39 40 41 44 42 44 43 44 46 48 51 52 53 55 57 59 62 62 65 65 69 73 77 79 83 71 90 93 91 100 94 103 91 107 109 111 115 119 122 119 114 127 126
40 42 43 44 25 48 48 50 50 50 52 55 57 58 59 61 62 63 67 65 69 70 79 80 83 76 91 91 92 100 95 104 103 106 109 109 114 117 122 122 117 125 124 128
44 45 36 48 48 50 52 52 54 55 57 59 59 60 61 62 64 68 66 64 74 80 80 83 76 90 88 97 100 102 104 102 104 109 111 114 116 115 123 117 122 124 127 95
47 39 49 51 51 52 53 56 58 61 60 60 63 64 65 66 71 67 69 76 81 79 86 89 90 87 96 101 102 104 102 102 109 111 114 115 116 124 132 128 124 132 92 81
51 53 53 55 56 55 55 56 59 61 63 62 65 67 67 72 68 77 78 80 78 88 90 90 94 96 102 104 104 103 99 111 111 114 114 114 127 130 131 121 133 90 84 79
54 56 59 58 59 59 60 61 62 60 63 65 67 69 70 76 78 78 79 81 89 90 89 95 99 101 104 104 102 101 112 114 114 117 119 128 130 125 125 134 85 76 73 74
55 57 59 62 63 64 65 65 65 67 69 71 73 75 76 78 77 79 88 89 89 94 96 99 101 103 103 100 109 112 112 113 117 120 127 120 121 131 135 82 75 73 69 69
63 63 62 64 65 67 67 68 67 70 72 74 75 78 81 77 86 89 89 88 96 84 99 103 103 103 108 110 110 112 116 119 122 130 123 127 134 138 78 75 75 74 72 68
62 65 66 67 67 68 70 70 72 74 75 77 79 78 82 86 87 87 94 97 97 100 101 104 105 111 111 111 114 115 120 121 126 115 129 137 136 76 76 75 75 72 68 64
66 68 68 68 69 71 73 73 75 76 79 80 74 86 88 89 92 95 97 99 99 100 97 108 112 108 113 115 116 120 125 119 127 131 138 112 80 78 76 74 70 67 65 61
66 66 67 69 71 73 74 75 78 80 73 75 87 89 91 93 94 96 88 78 100 96 111 112 100 116 116 120 121 128 120 130 132 136 82 81 79 77 73 69 68 67 62 57
68 68 69 71 72 74 77 79 81 80 85 86 89 91 93 95 98 72 100 90 110 112 106 111 117 117 119 120 127 125 127 133 127 81 80 79 77 70 68 67 64 60 60 55
69 67 69 72 74 76 79 81 83 85 89 93 93 94 96 72 100 90 106 110 113 115 116 116 117 117 122 122 131 128 134 116 81 81 80 74 72 70 67 65 61 60 56 55
70 71 73 75 78 80 82 84 89 90 93 95 72 79 99 89 104 106 113 114 117 116 116 115 116 123 123 131 131 138 83 85 82 78 75 74 70 68 64 62 61 60 61 61
73 76 78 81 83 85 86 87 91 78 87 97 99 91 101 107 109 115 116 116 116 116 115 119 125 127 128 133 139 86 83 78 76 76 75 69 63 61 60 59 61 64 59 54
76 78 81 83 86 90 91 89 90 96 99 78 103 106 111 115 117 117 118 117 118 115 122 128 129 129 133 126 84 79 78 78 77 75 68 63 61 58 60 62 55 52 51 51
84 85 81 83 88 91 94 97 100 100 106 108 111 114 115 116 118 117 118 120 122 123 129 128 133 98 83 79 79 79 79 76 72 68 61 58 56 59 61 53 53 53 50 28
86 90 92 93 97 99 100 102 104 109 112 113 113 114 115 115 117 118 119 123 129 129 131 138 82 79 78 79 75 66 68 69 67 59 56 54 57 60 51 53 55 34 33 30
93 94 92 95 100 105 107 108 109 109 112 112 112 113 114 116 120 121 125 125 129 136 85 80 77 77 75 73 73 57 57 62 59 55 52 54 56 49 52 55 46 43 35 29
Wind_Direction
275 275 270 268 271 271 272 282 284 284 280 280 269 253 258 267 272 270 271 275 277 275 276 282 288 294 296 294 295 295 296 300 298 299 303 303 305 308 311 313 312 310 310 309
272 271 268 268 268 270 274 281 284 283 277 269 252 261 277 284 282 285 288 289 289 290 288 290 290 288 289 290 294 296 295 300 301 305 305 307 311 312 313 312 308 310 313 317
268 265 264 264 272 271 276 278 276 272 261 253 258 276 281 282 283 284 283 281 281 284 288 291 295 292 294 296 297 299 302 303 306 308 310 311 312 312 311 309 312 314 317 320
267 266 261 265 262 276 272 272 270 261 255 267 277 276 277 280 283 286 286 288 291 296 301 302 299 300 302 304 302 303 302 306 308 310 311 312 313 313 312 314 317 319 321 322
267 266 267 270 271 273 271 269 257 258 286 275 277 279 280 284 285 287 289 293 298 299 300 299 298 301 302 305 304 307 308 308 309 311 314 314 315 312 314 321 320 320 321 322
265 268 269 268 271 274 271 268 263 268 274 276 278 282 286 287 288 289 292 293 295 296 296 300 300 304 306 307 308 308 309 311 313 313 314 316 310 318 319 318 320 320 321 322
263 267 269 272 273 279 286 269 271 275 277 278 279 282 284 287 289 290 291 294 298 299 300 301 303 303 305 307 308 309 309 311 312 314 315 310 316 319 319 319 319 320 321 320
260 264 267 273 275 276 275 273 277 281 282 283 285 285 287 288 290 292 295 299 300 300 300 302 304 306 307 306 308 310 311 313 314 315 311 317 319 318 318 319 320 317 319 320
259 263 267 270 272 275 277 278 280 282 285 288 289 290 291 290 291 293 296 298 300 301 302 304 305 307 307 308 309 311 313 313 315 311 316 317 317 317 318 320 319 317 319 319
258 262 266 268 282 273 278 280 281 284 286 286 287 290 292 293 295 296 297 300 300 302 303 305 305 307 306 309 311 311 312 313 313 314 316 316 316 318 320 319 318 319 319 320
256 261 264 266 270 272 275 278 281 282 283 285 288 289 291 292 294 298 300 301 301 301 302 304 306 305 308 309 310 311 312 312 312 316 316 316 317 317 319 317 318 319 319 310
257 261 264 267 267 271 274 276 278 280 284 287 290 292 293 295 296 298 299 298 299 301 302 302 304 307 308 309 310 311 311 311 314 315 315 316 317 318 319 318 318 319 309 307
262 262 263 265 267 270 273 275 277 279 282 286 286 288 292 292 295 295 296 297 300 300 302 304 306 308 309 309 310 311 309 314 313 314 315 316 318 317 318 318 319 309 308 308
262 264 265 268 271 272 273 275 276 279 281 282 285 288 290 291 293 295 297 299 300 301 305 305 307 308 309 310 310 309 312 313 314 315 316 316 317 317 318 317 307 306 305 305
262 264 266 268 271 273 275 278 281 282 284 286 287 289 291 293 295 297 297 299 301 302 304 306 307 307 308 308 311 311 312 313 313 315 315 315 316 317 317 308 307 306 307 307
265 267 268 270 272 273 276 278 280 282 284 285 288 290 292 295 294 296 298 301 301 302 305 306 306 307 309 310 310 312 313 314 315 315 315 316 317 316 309 309 309 309 309 308
270 269 268 270 273 277 278 279 281 282 284 287 289 292 293 295 296 299 300 300 302 303 305 306 308 309 309 310 312 312 314 314 314 313 316 316 315 310 310 309 309 308 307 308
271 273 274 276 277 277 279 282 283 284 286 288 290 292 293 295 297 297 298 300 301 304 304 307 307 309 310 310 311 312 313 314 315 316 316 313 310 310 310 309 307 308 308 307
273 275 276 276 277 279 281 283 284 285 288 290 290 292 293 294 296 298 299 302 304 304 306 307 308 309 310 312 313 313 314 314 315 315 310 311 311 311 309 309 308 307 307 306
276 277 278 279 279 280 282 283 285 286 288 289 291 292 294 296 297 301 302 302 305 306 307 308 308 309 310 312 312 313 313 314 314 310 311 311 310 309 309 307 305 303 305 304
276 277 279 280 280 280 280 282 284 286 289 290 293 295 296 299 300 301 303 305 305 306 306 306 308 309 311 312 312 312 313 313 310 311 311 310 310 310 308 306 304 303 302 301
279 280 279 278 279 280 281 284 285 289 292 293 294 297 298 300 301 303 303 304 304 305 306 307 309 310 311 311 312 313 310 310 311 311 310 310 309 308 307 306 304 303 304 302
277 279 279 280 281 282 285 289 290 292 292 293 296 298 299 299 301 301 302 303 304 305 307 309 310 310 310 311 312 310 310 310 311 311 311 311 309 308 307 306 306 306 300 297
276 278 280 282 284 285 286 288 291 292 293 297 295 297 298 298 299 301 301 303 305 307 308 308 309 310 310 311 309 310 310 311 311 313 313 311 310 309 309 309 306 304 302 300
274 276 282 286 287 287 289 289 290 292 292 294 294 295 297 298 299 301 303 305 306 307 307 308 309 309 309 310 310 310 311 311 313 314 313 313 311 310 312 311 310 308 307 312
280 281 282 284 284 285 287 289 291 291 291 293 294 295 297 299 301 303 304 305 305 306 307 307 310 311 311 311 313 313 311 312 313 314 314 313 313 314 315 314 314 322 324 325
279 280 283 285 286 287 287 287 289 290 291 293 295 297 299 300 301 302 303 304 305 305 308 310 311 311 313 314 316 313 312 312 314 315 316 314 315 317 317 318 323 322 325 327